Aérodrome :
LOGIN :

S'inscrire | Disclaimer

   EN    FR    IT 

 










Légende :    VFR   VFR Marginal   IFR   IFR Intensif   IFR Très Intensif
Visi : 
Plafond : 
>= 8 km
>= 3000ft
5 à 8 km
1000 à 3000 ft
1500m à 5 km
500 à 1000 ft
800 à 1500m
200 à 500 ft
< 800m
< 200 ft
Symboles :   Orages  Brouillard  Fortes neiges  Fortes précipitations  Vent > 20 kt
SIGMETs :   Divers  Orages  Givrage  Turbulence  Onde Orograph.  Cendres Volcan.






- Altitude de l'aérodrome : 65 ft
- Code IATA : PIK


EGPK - Glasgow Prestwick

DERNIER METAR :
  • 251750Z 35005KT 9999 FEW022CB 10/04 Q1014

METARs EXPIRÉS :
  • 251720Z 36008KT 9999 FEW022CB 11/04 Q1013
  • 251650Z 33008KT 290V360 9999 FEW022CB 12/05 Q1012
  • 251620Z 34010KT 9999 -SHRA FEW020CB 12/04 Q1012
  • 251550Z 34006G17KT 290V010 9999 VCSH FEW020CB 13/05 Q1012

TAF TAF EGPK
Valide du 25 à 18h jusqu'au 26 à 18h UTC


251701Z 2518/2618 33009KT 9999 FEW035



MET'MAP, la Météo Aéronautique d'un coup d'oeil ! - Copyright ORBIFLY Décembre 2007 - Disclaimer

ORBIFLY MET'MAP TEAM :

Programmation & Développement : Alexandra Zaïnal
Sur une idée originale de : Baudouin d'Aumeries
Assistance à la programmation : Marc-Olivier Méhu
Soutien technique & logistique : Manuel Goepfert

Contact : metmap@orbifly.com




SOURCES & CREDITS :

   NOAA